Location: Houston
(29.7631°N, 95.3631°W)
Time: 18:21:11
(UTC-06:00)

DX 1 - Pass Details

Date: 14 November 2019
Orbit: 619 x 631 km, 98.4° (Epoch: 10 December)

Event Time Altitude Azimuth Distance (km) Brightness Sun altitude
Rises 04:26:05 0° 168° (SSE) 2,897 ? -30.2°
Reaches altitude 10° 04:28:16 10° 169° (S) 1,991 ? -29.7°
Enters shadow 04:28:28 11° 169° (S) 1,907 ? -29.7°
